EW7164 Weather Reports


time (UTC)temp
F
wind
direction
speed
knots
gust
knots
rain 1hr
in
rain 24hr
in
rain mn
in
humidity
%
barometer
mb
20200407024016 45 258 10.4 0.0 0.00 0.00 0.00 29 0.9
20200407023114 45 256 11.3 0.0 0.00 0.00 0.00 30 0.9
20200407022215 45 258 11.3 0.0 0.00 0.00 0.00 29 0.9
20200407021217 45 259 8.7 0.0 0.00 0.00 0.00 30 0.9
20200407020215 45 270 10.4 0.0 0.00 0.00 0.00 30 0.9
20200407015313 45 270 7.8 0.0 0.00 0.00 0.00 29 0.9
20200407014316 46 253 7.8 0.0 0.00 0.00 0.00 28 0.9
20200407013315 46 271 7.8 0.0 0.00 0.00 0.00 28 0.9
20200407012415 46 278 9.6 0.0 0.00 0.00 0.00 27 0.9
20200407011514 46 271 12.2 0.0 0.00 0.00 0.00 27 0.9
20200407010514 46 267 7.0 0.0 0.00 0.00 0.00 28 0.9
20200407005513 46 274 7.0 0.0 0.00 0.00 0.00 27 0.9
20200407004522 47 273 7.0 0.0 0.00 0.00 0.00 27 0.9
20200407003515 47 284 7.8 0.0 0.00 0.00 0.00 27 0.9
20200407002615 47 266 7.8 0.0 0.00 0.00 0.00 27 0.9
20200407001616 47 275 7.8 0.0 0.00 0.00 0.00 27 0.9
20200407000715 47 274 7.8 0.0 0.00 0.00 0.00 26 0.9
20200406235715 48 281 6.1 0.0 0.00 0.00 0.00 25 0.9
20200406234813 48 267 7.8 0.0 0.00 0.00 0.00 26 0.9
20200406233913 48 274 7.8 0.0 0.00 0.00 0.00 25 0.9
20200406232916 49 284 7.0 0.0 0.00 0.00 0.00 24 0.9
20200406231916 49 274 7.8 0.0 0.00 0.00 0.00 24 0.9
20200406231014 49 289 12.2 0.0 0.00 0.00 0.00 24 0.9
20200406230014 49 297 11.3 0.0 0.00 0.00 0.00 24 0.9
20200406225114 50 274 8.7 0.0 0.00 0.00 0.00 22 0.9
20200406224115 50 285 11.3 0.0 0.00 0.00 0.00 22 0.9
20200406223117 51 281 10.4 0.0 0.00 0.00 0.00 22 0.9
20200406222214 51 286 11.3 0.0 0.00 0.00 0.00 21 0.9
20200406221213 51 290 12.2 0.0 0.00 0.00 0.00 22 0.9
20200406220217 51 299 7.8 0.0 0.00 0.00 0.00 21 0.9
20200406215216 52 293 14.8 0.0 0.00 0.00 0.00 21 0.9
20200406214314 52 305 12.2 0.0 0.00 0.00 0.00 21 0.9
20200406213315 52 303 8.7 0.0 0.00 0.00 0.00 20 0.9
20200406212316 52 312 13.0 0.0 0.00 0.00 0.00 20 0.9
20200406211414 52 279 14.8 0.0 0.00 0.00 0.00 20 0.9
20200406210415 52 290 14.8 0.0 0.00 0.00 0.00 20 0.9
20200406205416 52 292 14.8 0.0 0.00 0.00 0.00 21 0.9
20200406204419 52 305 14.8 0.0 0.00 0.00 0.00 20 0.9
20200406203515 52 271 16.5 0.0 0.00 0.00 0.00 19 0.9
20200406202516 53 291 16.5 0.0 0.00 0.00 0.00 20 0.9
20200406201615 52 308 13.9 0.0 0.00 0.00 0.00 19 0.9
20200406200712 52 302 21.7 0.0 0.00 0.00 0.00 19 0.9
20200406195716 53 298 21.7 0.0 0.00 0.00 0.00 18 0.9
20200406194716 53 274 18.2 0.0 0.00 0.00 0.00 19 0.9
20200406193816 52 281 16.5 0.0 0.00 0.00 0.00 18 0.9
20200406192816 52 292 13.0 0.0 0.00 0.00 0.00 19 0.9
20200406191815 53 325 15.6 0.0 0.00 0.00 0.00 18 0.9
20200406190915 52 267 10.4 0.0 0.00 0.00 0.00 20 0.9
20200406185914 52 274 12.2 0.0 0.00 0.00 0.00 19 0.9
20200406184917 52 275 16.5 0.0 0.00 0.00 0.00 20 0.9
20200406183916 52 298 20.9 0.0 0.00 0.00 0.00 20 0.9
20200406183014 52 305 19.1 0.0 0.00 0.00 0.00 21 0.9
20200406182017 51 296 13.0 0.0 0.00 0.00 0.00 21 0.9
20200406181113 52 278 15.6 0.0 0.00 0.00 0.00 20 0.9
20200406180122 51 289 9.6 0.0 0.00 0.00 0.00 21 0.9
20200406175215 51 281 10.4 0.0 0.00 0.00 0.00 21 0.9
20200406174314 50 261 16.5 0.0 0.00 0.00 0.00 21 0.9
20200406173331 50 273 17.4 0.0 0.00 0.00 0.00 21 0.9
20200406172418 50 299 16.5 0.0 0.00 0.00 0.00 21 0.9
20200406171514 50 314 11.3 0.0 0.00 0.00 0.00 21 0.9
20200406170613 50 286 16.5 0.0 0.00 0.00 0.00 20 0.9
20200406165614 50 296 19.1 0.0 0.00 0.00 0.00 21 0.9
20200406164616 49 273 15.6 0.0 0.00 0.00 0.00 21 0.9
20200406163714 50 289 14.8 0.0 0.00 0.00 0.00 22 0.9
20200406162716 50 311 16.5 0.0 0.00 0.00 0.00 22 0.9
20200406161814 50 314 13.0 0.0 0.00 0.00 0.00 22 0.9
20200406160816 50 296 12.2 0.0 0.00 0.00 0.00 23 0.9
20200406155914 49 275 10.4 0.0 0.00 0.00 0.00 24 0.9
20200406155015 49 271 7.8 0.0 0.00 0.00 0.00 25 0.9
20200406154019 48 271 14.8 0.0 0.00 0.00 0.00 26 0.9
20200406153115 48 267 13.9 0.0 0.00 0.00 0.00 26 0.9
20200406152115 47 298 8.7 0.0 0.00 0.00 0.00 27 0.9
20200406151115 47 316 13.0 0.0 0.00 0.00 0.00 26 0.9
20200406150116 47 314 11.3 0.0 0.00 0.00 0.00 27 0.9
20200406145116 46 313 13.0 0.0 0.00 0.00 0.00 29 0.9
20200406144115 46 352 13.0 0.0 0.00 0.00 0.00 30 1.0
20200406143113 46 344 12.2 0.0 0.00 0.00 0.00 33 1.0
20200406142116 45 296 10.4 0.0 0.00 0.00 0.00 33 1.0
20200406141115 44 321 15.6 0.0 0.00 0.00 0.00 34 0.9
20200406140115 44 328 13.0 0.0 0.00 0.00 0.00 35 0.9
20200406135114 43 299 14.8 0.0 0.00 0.00 0.00 38 0.9
20200406134116 42 300 10.4 0.0 0.00 0.00 0.00 39 1.0
20200406133213 42 311 12.2 0.0 0.00 0.00 0.00 40 1.0
20200406132313 41 295 14.8 0.0 0.00 0.00 0.00 42 1.0
20200406131315 41 313 16.5 0.0 0.00 0.00 0.00 44 1.0
20200406130414 41 316 12.2 0.0 0.00 0.00 0.00 46 1.0
20200406125415 40 290 13.9 0.0 0.00 0.00 0.00 47 0.9
20200406124414 40 305 17.4 0.0 0.00 0.00 0.00 48 1.0
20200406123415 39 289 14.8 0.0 0.00 0.00 0.00 50 1.0
20200406122415 39 299 12.2 0.0 0.00 0.00 0.00 51 1.0
20200406121513 39 302 13.0 0.0 0.00 0.00 0.00 52 1.0
20200406120514 39 304 14.8 0.0 0.00 0.00 0.00 54 1.0
20200406115514 38 294 18.2 0.0 0.00 0.00 0.00 54 1.0
20200406114519 38 288 11.3 0.0 0.00 0.00 0.00 54 1.0
20200406113615 38 294 11.3 0.0 0.00 0.00 0.00 56 1.0
20200406112714 38 295 14.8 0.0 0.00 0.00 0.00 56 0.9
20200406111814 38 294 12.2 0.0 0.00 0.00 0.00 57 1.0
20200406110914 38 285 10.4 0.0 0.00 0.00 0.00 57 0.9
20200406105915 38 289 10.4 0.0 0.00 0.00 0.00 58 0.9
20200406104920 38 293 13.9 0.0 0.00 0.00 0.00 58 0.9
20200406104014 38 293 10.4 0.0 0.00 0.00 0.00 58 0.9
20200406103015 38 300 10.4 0.0 0.00 0.00 0.00 59 0.9
20200406102017 38 287 9.6 0.0 0.00 0.00 0.00 60 0.9
20200406101113 38 287 10.4 0.0 0.00 0.00 0.00 60 0.9
20200406100116 38 294 10.4 0.0 0.00 0.00 0.00 59 0.9
20200406095215 38 286 12.2 0.0 0.00 0.00 0.00 59 0.9
20200406094313 38 286 11.3 0.0 0.00 0.00 0.00 61 0.9
20200406093317 39 289 13.9 0.0 0.00 0.00 0.00 61 0.9
20200406090613 39 278 13.0 0.0 0.00 0.00 0.00 65 0.9
20200406085615 39 276 12.2 0.0 0.00 0.00 0.00 66 0.9
20200406084616 39 270 10.4 0.0 0.00 0.00 0.00 67 0.9
20200406083616 40 282 11.3 0.0 0.00 0.00 0.00 70 0.9
20200406082715 40 267 9.6 0.0 0.00 0.00 0.00 71 0.9
20200406081721 40 274 11.3 0.0 0.00 0.00 0.00 70 0.9
20200406080715 41 275 9.6 0.0 0.00 0.00 0.00 70 0.9
20200406075815 41 272 10.4 0.0 0.00 0.00 0.00 71 0.9
20200406074815 41 284 11.3 0.0 0.00 0.00 0.00 71 0.9
20200406073914 41 278 8.7 0.0 0.00 0.00 0.00 72 0.9
20200406073014 41 277 14.8 0.0 0.00 0.00 0.00 72 0.9
20200406072016 41 270 12.2 0.0 0.00 0.00 0.00 72 0.9
20200406071017 41 263 12.2 0.0 0.00 0.00 0.00 72 0.9
20200406070115 41 270 13.0 0.0 0.00 0.00 0.00 71 0.9
20200406065215 41 264 13.0 0.0 0.00 0.00 0.00 71 0.9
20200406064313 41 278 13.9 0.0 0.00 0.00 0.00 72 0.9
20200406063314 41 254 13.0 0.0 0.00 0.00 0.00 72 0.9
20200406062315 41 227 16.5 0.0 0.00 0.00 0.00 71 0.9
20200406061418 41 240 13.0 0.0 0.00 0.00 0.00 71 0.9
20200406060514 42 236 12.2 0.0 0.00 0.00 0.00 71 0.9
20200406055514 42 241 15.6 0.0 0.00 0.00 0.00 71 0.9
20200406054613 42 232 13.0 0.0 0.00 0.00 0.00 71 0.9
20200406053616 42 255 13.9 0.0 0.00 0.00 0.00 71 0.9
20200406052715 41 245 12.2 0.0 0.00 0.00 0.00 71 0.9
20200406051713 41 238 14.8 0.0 0.00 0.00 0.00 71 0.9
20200406050715 41 241 11.3 0.0 0.00 0.00 0.00 69 0.9
20200406045815 41 235 12.2 0.0 0.00 0.00 0.00 68 0.9
20200406044915 41 252 13.9 0.0 0.00 0.00 0.00 65 0.9
20200406044015 42 235 15.6 0.0 0.00 0.00 0.00 64 0.9
20200406043017 42 236 14.8 0.0 0.00 0.00 0.00 61 0.9
20200406042021 43 233 13.9 0.0 0.00 0.00 0.00 58 0.9
20200406041113 43 241 8.7 0.0 0.00 0.00 0.00 54 0.9
20200406040122 43 233 12.2 0.0 0.00 0.00 0.00 51 0.9
20200406035124 43 221 12.2 0.0 0.00 0.00 0.00 50 0.9
20200406034124 43 238 13.0 0.0 0.00 0.00 0.00 50 0.9
20200406033223 43 233 12.2 0.0 0.00 0.00 0.00 50 0.9
20200406032324 43 232 7.8 0.0 0.00 0.00 0.00 50 1.0
20200406031324 43 228 13.9 0.0 0.00 0.00 0.00 50 1.0
20200406030325 43 229 14.8 0.0 0.00 0.00 0.00 49 1.0
20200406025424 43 228 12.2 0.0 0.00 0.00 0.00 49 1.0
20200406024522 43 225 13.9 0.0 0.00 0.00 0.00 49 1.0